Temperature
18 18 18 18 17 17 17 17 17 17 17 17 17 17 17 17 17 17 17 17 18 17 17 17 17 17 17 17 17 17 17 16 16 16 16 16 16 16 16 16 16 16 16
18 18 18 18 17 17 17 17 17 17 17 17 17 17 17 17 17 17 17 17 17 17 17 17 17 17 17 17 17 17 16 16 16 16 16 16 16 16 16 16 16 16 16
18 17 17 17 17 17 17 17 17 17 17 17 17 17 17 17 17 17 17 17 17 17 17 17 17 17 17 17 17 17 17 16 16 16 16 16 16 16 16 16 16 16 16
18 17 17 17 17 17 17 17 17 17 17 17 17 17 17 17 17 17 17 17 17 17 17 17 17 17 17 17 17 17 17 16 16 16 16 16 16 16 16 16 16 16 16
17 17 17 17 17 17 17 17 17 17 17 17 17 17 17 17 17 17 17 17 17 17 17 17 17 17 17 16 16 16 16 16 16 16 16 16 16 16 16 16 16 16 16
17 17 17 17 17 17 17 17 17 17 17 17 17 17 17 17 17 17 17 17 17 17 17 17 16 16 16 16 16 16 16 16 16 16 16 16 16 16 16 16 16 16 16
17 17 17 17 17 17 17 17 17 17 17 17 17 17 17 17 17 17 17 17 17 17 17 16 16 16 16 16 16 16 16 16 16 16 16 16 16 16 16 16 16 16 16
17 17 17 17 17 17 17 16 16 17 17 17 17 17 17 17 17 17 17 17 17 17 17 16 16 16 16 16 16 16 16 16 16 16 16 16 16 16 15 15 15 15 15
17 17 17 17 17 17 16 16 16 17 17 17 17 17 17 18 17 18 17 17 17 17 17 17 16 16 16 16 16 16 16 16 16 16 15 15 15 15 15 15 15 15 15
17 17 17 16 17 16 16 16 16 16 17 17 17 17 17 17 17 17 17 17 17 17 17 17 17 16 16 16 16 16 16 16 16 16 15 15 15 15 15 15 15 15 15
17 16 16 16 16 16 16 16 16 16 16 17 17 17 17 18 18 18 18 17 17 17 17 17 17 17 16 16 16 16 16 16 16 16 16 15 15 15 15 15 15 15 15
17 16 16 16 16 16 16 16 16 16 16 16 17 17 17 18 18 18 18 18 18 18 17 17 17 17 16 16 16 16 16 16 16 16 16 15 15 15 15 15 15 15 15
17 16 16 16 16 16 16 16 16 16 16 16 17 17 17 17 17 18 18 18 18 18 18 18 17 17 17 16 16 16 16 16 16 16 16 16 15 15 15 15 15 15 15
17 17 16 16 16 16 16 16 16 16 16 16 16 16 17 17 17 17 17 17 18 18 18 18 18 17 17 17 16 16 16 16 16 16 16 16 16 15 15 15 15 15 15
17 17 17 16 16 16 16 16 16 16 16 16 16 16 16 17 17 17 17 17 17 17 18 18 18 17 17 17 16 16 16 16 16 16 16 16 16 16 15 15 15 15 15
17 17 17 16 16 16 16 16 16 16 16 16 16 16 16 16 16 16 16 16 17 17 17 17 17 17 17 17 17 16 16 16 16 16 16 16 16 16 16 16 16 15 15
17 17 16 16 16 16 16 16 16 16 16 16 16 16 16 16 16 16 16 16 16 16 16 17 17 17 17 17 17 16 16 16 16 16 16 16 16 16 16 16 16 16 16
17 17 16 16 16 16 16 16 16 16 16 15 15 15 15 16 16 16 16 16 16 16 16 16 16 16 16 16 16 16 16 15 15 15 15 15 16 16 16 16 16 16 16
17 16 16 16 16 16 16 16 16 16 16 15 15 15 15 15 15 15 15 15 15 15 15 15 15 15 15 15 15 15 15 15 15 15 15 15 15 15 15 15 15 15 15
17 16 16 16 16 16 16 16 15 15 15 15 15 15 15 15 15 15 15 15 15 15 15 15 15 15 15 15 15 15 15 15 15 15 15 15 15 15 15 15 15 15 15
16 16 16 16 16 15 15 15 15 15 15 15 15 15 14 14 14 14 14 14 14 14 14 14 14 14 14 14 14 14 14 14 14 14 14 14 14 14 14 14 14 14 14
16 16 16 15 15 15 15 15 15 15 15 14 14 14 14 14 14 14 14 13 13 13 13 13 13 13 13 13 13 13 13 13 13 14 13 14 14 14 14 14 14 14 14
16 15 15 15 15 15 15 15 15 15 14 14 14 13 13 13 13 13 13 13 12 12 12 12 12 12 12 12 12 12 12 12 12 12 12 13 13 13 13 13 13 13 13
15 15 15 15 14 14 14 14 14 14 14 13 13 13 13 13 12 12 12 12 12 11 11 11 11 11 11 11 11 11 11 11 11 11 11 11 11 11 12 12 12 12 12
14 14 14 14 14 14 14 14 13 13 13 12 12 12 12 12 11 11 11 11 11 11 10 10 10 10 10 10 10 10 10 9 9 10 10 10 10 10 11 11 11 11 11
13 13 13 13 13 13 13 13 12 12 12 11 11 11 11 10 10 10 10 10 10 10 10 10 9 9 9 9 9 9 9 8 8 8 9 9 9 9 9 9 10 10 10
Wind_Speed
3 4 3 4 4 6 5 3 2 2 2 2 2 3 2 3 7 11 12 14 13 12 11 10 9 9 8 8 8 8 8 7 7 7 7 7 7 7 6 6 5 5 5
4 3 3 2 2 3 3 2 3 2 1 2 1 2 2 3 6 10 13 13 13 13 12 11 10 9 9 9 9 9 9 8 8 8 8 8 8 7 7 6 6 5 5
6 3 3 2 2 5 4 2 2 2 2 3 2 1 2 2 4 6 11 12 12 12 12 12 11 10 9 9 10 10 10 10 9 9 9 9 9 8 8 8 7 7 6
7 3 3 3 4 4 3 2 2 2 2 2 2 2 2 2 3 4 6 10 12 11 13 13 12 12 11 10 10 10 11 11 11 11 10 10 10 10 9 9 9 8 8
7 4 2 3 3 2 2 2 2 2 2 1 2 2 2 3 3 4 4 6 8 11 12 14 14 13 12 11 10 10 10 11 12 12 11 11 11 11 11 11 11 10 10
7 5 4 4 3 2 2 3 3 2 1 1 2 3 2 3 3 2 3 5 8 10 12 13 13 13 14 12 12 11 11 11 12 13 12 12 12 12 13 13 12 12 12
6 2 3 4 2 2 4 4 3 3 2 1 1 2 2 3 3 3 2 2 4 6 9 12 12 12 13 15 13 12 12 11 12 12 13 14 14 14 15 15 14 14 14
7 5 3 4 3 3 3 2 2 1 3 3 1 1 2 2 2 5 4 4 3 4 6 10 10 10 10 12 14 14 13 12 12 12 12 13 14 14 15 16 16 15 15
6 4 4 2 3 4 4 3 3 2 1 2 2 0 0 1 2 2 4 4 3 3 2 5 9 11 10 11 11 14 13 12 11 11 11 11 12 13 14 15 15 16 16
6 6 5 3 2 2 5 5 4 2 1 2 2 2 1 1 1 1 2 4 5 4 3 3 5 10 9 9 11 13 14 12 11 11 11 11 11 12 12 13 13 14 15
5 6 6 4 3 2 4 2 4 1 2 2 2 2 2 1 2 2 2 3 3 4 5 4 3 6 10 10 12 13 14 13 11 10 10 10 10 10 10 11 11 12 12
5 6 6 4 4 3 4 3 3 3 1 2 2 2 0 1 2 2 1 3 4 4 4 4 3 4 9 11 11 15 16 14 12 11 10 9 9 9 9 10 10 11 12
5 6 6 5 4 3 4 3 3 2 3 1 1 3 2 2 2 2 2 2 1 1 3 4 4 5 7 9 12 16 17 16 14 13 12 11 11 10 10 10 10 11 11
6 8 7 6 5 5 5 4 3 4 2 2 3 2 3 3 3 2 2 2 3 2 3 4 4 5 6 9 14 17 15 18 17 15 14 14 13 13 12 12 12 12 12
7 9 8 7 5 4 3 4 3 3 4 3 4 3 3 3 3 2 2 2 2 3 3 2 2 3 6 7 14 14 11 17 19 18 18 17 17 16 16 16 15 15 15
7 8 8 7 6 5 4 3 3 3 3 3 2 1 2 3 2 2 2 2 2 3 3 2 2 2 2 4 13 12 10 13 19 20 20 20 20 20 20 19 19 19 19
7 8 7 6 6 6 5 4 4 4 4 4 4 3 3 3 3 4 3 3 3 3 4 4 3 1 2 2 4 8 9 10 14 22 25 25 25 24 23 22 22 21 21
7 7 6 6 5 6 5 5 5 4 4 4 4 4 4 4 4 4 4 5 4 3 3 5 4 3 3 4 5 5 7 11 12 17 24 27 27 27 26 25 24 24 23
6 6 6 5 5 4 4 4 4 4 3 3 3 3 3 3 3 3 4 4 4 5 3 4 5 4 4 4 4 5 7 6 11 13 15 21 24 26 26 26 26 26 25
6 5 5 4 3 2 2 3 3 3 2 2 1 1 1 1 2 3 3 3 4 5 5 5 5 5 5 4 3 3 4 4 5 9 9 10 15 21 25 26 26 27 27
6 4 4 3 2 1 1 1 1 1 1 0 1 1 2 4 5 4 3 3 4 4 4 5 5 5 4 4 4 4 5 5 5 5 4 5 5 6 11 18 23 25 26
5 5 4 3 3 3 5 7 4 2 2 2 2 2 3 5 5 5 4 4 3 4 4 4 5 5 5 5 4 5 5 5 5 3 4 7 6 7 7 12 16 19 22
6 5 5 6 7 7 9 9 8 4 4 5 5 5 5 8 9 6 4 3 3 2 1 3 5 5 5 5 5 6 6 6 6 6 7 9 7 8 8 16 18 18 18
7 7 7 8 8 9 11 10 8 5 6 6 7 7 7 8 9 8 6 5 4 4 3 2 3 4 5 4 4 5 7 7 8 7 7 8 7 8 10 9 16 18 18
9 9 9 9 10 10 12 12 9 5 6 6 7 8 7 7 9 10 7 6 6 5 6 6 7 9 11 12 9 5 6 6 8 7 5 6 6 7 7 7 11 15 14
10 10 11 11 11 10 13 14 12 6 6 5 6 7 10 8 8 9 6 6 6 7 8 9 8 9 8 9 10 6 5 6 7 6 4 5 6 7 6 5 5 9 12
Wind_Direction
135 128 130 141 163 156 169 168 143 127 131 124 141 131 92 90 116 123 141 156 159 164 166 168 168 170 171 170 170 172 173 174 173 171 173 172 169 166 161 158 154 151 146
135 122 124 121 124 113 103 105 111 118 123 110 113 115 120 108 110 131 148 162 167 169 172 177 180 182 183 184 186 188 189 191 186 185 186 187 185 184 181 177 174 172 169
128 129 138 168 133 120 113 122 125 160 169 152 133 125 116 115 122 141 153 163 171 177 181 185 187 191 194 195 196 199 200 202 197 197 198 199 197 197 197 193 191 192 193
138 163 166 147 135 141 154 145 195 166 120 132 137 130 124 137 132 152 169 168 171 176 184 191 193 197 201 203 205 206 206 206 204 205 206 208 208 208 207 205 206 206 208
154 181 128 118 166 165 168 176 130 98 132 142 144 154 173 155 154 183 173 170 166 166 176 188 195 199 202 205 209 211 208 209 210 211 213 215 216 216 216 215 216 217 217
169 172 142 150 197 163 128 86 91 78 109 213 213 152 165 154 172 154 181 183 176 181 183 181 188 201 207 209 211 212 213 215 216 217 219 222 224 224 223 222 222 223 223
162 186 137 158 201 135 133 144 144 164 205 204 179 157 175 191 169 161 195 180 181 183 177 172 186 191 198 210 212 214 218 219 221 223 225 228 231 231 229 228 227 228 228
166 171 129 173 148 131 128 137 126 193 222 173 194 190 186 197 221 188 167 188 176 177 185 182 183 183 196 190 205 213 218 219 222 226 229 231 234 234 233 232 232 232 232
167 134 145 155 148 169 153 175 183 209 249 181 188 132 212 169 193 171 187 164 158 184 195 179 185 187 200 186 188 202 210 214 221 224 226 228 233 237 236 235 235 236 237
161 152 157 145 167 167 147 190 183 202 247 254 193 168 160 79 65 147 219 171 183 187 217 211 185 180 191 179 175 184 197 206 213 219 223 225 229 234 235 236 237 239 240
162 156 152 151 175 186 150 148 125 185 273 269 278 203 185 187 243 219 189 179 200 191 190 202 190 181 186 185 175 181 188 196 204 213 219 223 226 230 232 233 236 239 242
170 162 156 161 177 171 139 147 145 189 268 341 341 340 127 231 257 267 214 203 202 197 181 183 184 189 191 191 192 182 185 191 198 204 210 216 222 226 228 231 235 240 244
169 168 162 163 174 145 150 164 166 221 198 219 310 317 330 320 334 338 330 307 299 190 183 193 194 197 204 175 170 176 185 191 198 205 212 217 221 224 228 233 238 242 245
164 156 152 165 172 170 177 168 184 199 191 204 246 282 320 319 328 322 316 334 318 288 218 208 192 187 199 172 175 179 188 197 204 210 216 221 225 229 233 237 240 243 246
153 154 160 168 174 179 175 160 217 202 163 198 230 221 251 275 266 290 310 311 299 302 295 240 190 189 180 168 168 188 198 206 211 216 220 225 230 234 237 240 243 246 248
146 154 163 167 171 174 178 193 212 191 184 214 246 258 241 288 286 262 266 278 275 277 286 309 267 204 177 190 181 200 221 216 216 221 225 229 232 235 239 242 245 248 249
152 159 164 169 177 179 183 195 227 190 201 218 236 229 227 268 307 312 293 272 265 264 274 288 295 270 175 206 172 221 241 234 225 227 229 231 233 236 238 241 244 247 248
161 162 169 176 190 189 184 193 220 213 208 216 230 234 234 240 237 277 299 299 292 285 272 284 294 298 261 225 216 228 250 255 251 243 232 232 233 236 239 241 244 246 248
168 169 172 186 198 194 185 198 216 224 224 228 231 235 241 256 258 264 272 290 300 293 271 267 275 275 272 262 249 246 253 260 271 274 251 236 237 239 242 244 246 246 247
170 173 172 171 177 182 190 207 214 224 229 240 247 259 272 277 287 289 284 291 297 302 303 295 285 286 283 283 275 268 276 275 276 282 290 266 246 244 245 247 249 250 249
170 152 140 133 127 106 30 15 227 222 188 287 341 354 44 54 47 23 343 343 330 317 312 310 304 306 310 330 329 319 302 303 290 282 299 299 289 266 261 258 256 255 253
137 129 125 114 89 66 41 47 44 43 60 62 43 46 66 52 44 32 12 357 345 320 321 320 316 318 328 337 335 325 318 313 300 318 331 304 302 292 284 277 268 260 257
126 110 108 98 84 56 50 46 41 52 57 57 48 41 41 47 34 16 356 354 17 11 304 298 303 313 320 335 336 324 319 309 291 297 303 288 286 284 282 284 283 278 269
113 106 98 94 84 58 47 44 37 61 70 66 61 63 66 52 29 14 359 6 1 9 345 318 319 308 307 306 295 293 292 291 281 275 267 274 280 279 282 285 287 283 274
101 95 93 88 81 59 45 40 32 71 76 69 68 61 65 63 35 18 11 4 356 351 342 329 307 292 288 284 276 283 287 292 296 297 299 293 297 303 297 292 293 296 293
101 96 87 83 81 69 49 43 37 48 58 61 82 76 62 56 36 23 14 360 351 345 336 325 311 298 284 279 271 245 265 289 299 302 316 325 315 319 305 293 305 318 314
Height
1550 1551 1553 1554 1555 1557 1558 1559 1560 1561 1562 1564 1565 1566 1568 1569 1570 1570 1570 1572 1573 1574 1575 1577 1578 1579 1580 1582 1583 1584 1586 1587 1588 1589 1590 1591 1592 1593 1594 1594 1595 1596 1596
1549 1551 1552 1554 1555 1557 1558 1559 1560 1561 1562 1564 1565 1566 1567 1569 1569 1570 1571 1572 1573 1574 1575 1576 1577 1579 1580 1581 1583 1584 1585 1586 1587 1588 1589 1590 1591 1592 1593 1594 1595 1596 1596
1547 1550 1552 1553 1555 1556 1557 1559 1560 1561 1562 1564 1565 1566 1567 1568 1569 1570 1571 1571 1573 1574 1575 1576 1577 1578 1579 1580 1581 1583 1584 1586 1587 1588 1589 1590 1591 1592 1593 1594 1595 1595 1596
1547 1549 1551 1552 1554 1556 1557 1558 1559 1561 1562 1563 1565 1566 1567 1568 1568 1570 1571 1571 1572 1573 1574 1575 1576 1577 1578 1579 1580 1582 1583 1584 1585 1586 1587 1588 1589 1591 1592 1593 1594 1594 1595
1546 1548 1550 1551 1553 1555 1557 1558 1559 1560 1562 1563 1564 1565 1567 1568 1568 1570 1570 1571 1572 1573 1573 1574 1575 1576 1577 1578 1579 1580 1581 1582 1584 1585 1586 1587 1588 1589 1590 1591 1592 1593 1594
1545 1547 1549 1551 1553 1555 1556 1557 1558 1560 1561 1563 1564 1566 1567 1567 1568 1569 1570 1571 1572 1572 1573 1573 1574 1574 1575 1576 1577 1578 1579 1580 1581 1583 1584 1585 1586 1587 1588 1589 1590 1591 1592
1544 1546 1548 1550 1552 1553 1555 1556 1558 1559 1561 1562 1564 1565 1566 1567 1568 1568 1569 1570 1571 1572 1572 1572 1573 1573 1574 1575 1575 1576 1577 1578 1579 1580 1581 1582 1583 1585 1586 1587 1588 1588 1589
1543 1545 1547 1549 1550 1552 1554 1556 1557 1559 1561 1562 1563 1565 1566 1567 1566 1567 1568 1569 1570 1571 1571 1572 1572 1572 1573 1573 1574 1574 1575 1576 1576 1577 1578 1579 1580 1581 1582 1583 1584 1585 1586
1542 1544 1546 1548 1550 1551 1553 1554 1556 1558 1560 1561 1563 1564 1564 1565 1566 1567 1567 1568 1569 1569 1570 1571 1571 1571 1571 1571 1572 1572 1573 1573 1574 1575 1576 1576 1577 1578 1579 1580 1581 1582 1583
1540 1542 1544 1546 1548 1550 1552 1554 1555 1557 1558 1560 1562 1563 1564 1564 1565 1566 1567 1567 1568 1568 1569 1570 1570 1569 1570 1570 1570 1570 1571 1571 1572 1572 1573 1574 1574 1575 1576 1576 1577 1578 1579
1539 1541 1543 1545 1547 1549 1551 1552 1554 1556 1557 1559 1561 1562 1563 1564 1564 1565 1566 1567 1567 1567 1567 1568 1568 1568 1568 1569 1568 1569 1569 1570 1570 1570 1570 1571 1571 1572 1572 1573 1574 1574 1575
1537 1540 1542 1544 1546 1548 1549 1551 1552 1554 1556 1557 1559 1560 1562 1563 1563 1564 1565 1565 1565 1565 1566 1566 1567 1567 1567 1567 1567 1567 1567 1568 1568 1568 1568 1568 1569 1569 1569 1570 1570 1571 1571
1536 1538 1541 1543 1545 1547 1548 1550 1551 1553 1555 1556 1557 1559 1560 1561 1562 1563 1563 1564 1564 1564 1564 1565 1564 1565 1565 1565 1565 1566 1566 1566 1566 1566 1565 1566 1566 1566 1566 1567 1567 1567 1568
1535 1537 1539 1542 1544 1546 1548 1549 1551 1552 1553 1555 1556 1557 1558 1560 1561 1561 1562 1563 1562 1563 1562 1562 1562 1562 1563 1563 1563 1563 1563 1563 1563 1563 1563 1563 1563 1563 1563 1563 1563 1564 1564
1534 1536 1538 1540 1542 1545 1547 1548 1550 1551 1552 1553 1555 1556 1557 1558 1559 1560 1560 1561 1562 1561 1561 1560 1560 1560 1561 1561 1561 1561 1561 1560 1560 1560 1560 1560 1560 1560 1560 1560 1560 1560 1560
1533 1534 1537 1539 1541 1543 1545 1547 1548 1550 1551 1552 1553 1554 1555 1556 1557 1558 1558 1559 1559 1559 1559 1558 1559 1559 1558 1559 1558 1558 1557 1557 1557 1557 1557 1557 1557 1556 1556 1556 1556 1556 1556
1531 1533 1536 1538 1540 1542 1544 1545 1547 1549 1549 1550 1551 1552 1553 1554 1554 1555 1555 1556 1556 1557 1556 1556 1556 1556 1556 1556 1555 1555 1554 1554 1553 1552 1552 1552 1552 1552 1552 1551 1551 1551 1551
1529 1532 1535 1537 1539 1541 1543 1544 1545 1547 1548 1549 1550 1550 1551 1551 1551 1552 1552 1553 1553 1553 1553 1552 1552 1553 1552 1552 1551 1551 1550 1549 1549 1549 1548 1548 1547 1547 1547 1546 1546 1545 1545
1528 1531 1533 1535 1538 1540 1541 1543 1544 1545 1546 1547 1548 1548 1548 1549 1549 1549 1549 1549 1549 1550 1549 1549 1548 1548 1548 1548 1547 1546 1545 1545 1544 1544 1544 1543 1542 1541 1541 1541 1540 1540 1539
1526 1529 1532 1534 1536 1538 1539 1541 1542 1543 1544 1545 1545 1545 1546 1546 1546 1546 1546 1545 1545 1545 1545 1545 1544 1543 1543 1543 1542 1541 1540 1539 1539 1539 1538 1537 1536 1535 1535 1534 1534 1533 1532
1525 1528 1530 1532 1534 1536 1537 1538 1539 1540 1541 1541 1542 1542 1542 1542 1542 1542 1542 1542 1541 1541 1541 1540 1539 1539 1538 1537 1537 1536 1535 1534 1533 1533 1532 1531 1530 1529 1528 1527 1526 1526 1525
1524 1526 1528 1530 1532 1533 1534 1535 1537 1537 1538 1538 1539 1539 1539 1539 1538 1538 1538 1538 1537 1537 1536 1535 1535 1534 1533 1532 1531 1530 1529 1528 1526 1527 1525 1523 1523 1521 1521 1520 1519 1518 1517
1522 1524 1526 1528 1530 1531 1532 1533 1534 1535 1535 1535 1536 1536 1536 1535 1535 1534 1534 1533 1533 1532 1532 1531 1530 1529 1528 1527 1526 1524 1523 1521 1520 1519 1518 1515 1515 1513 1513 1512 1511 1510 1509
1520 1522 1524 1526 1528 1529 1530 1531 1532 1532 1533 1533 1533 1533 1532 1532 1531 1530 1529 1529 1528 1527 1527 1526 1525 1524 1523 1522 1521 1519 1517 1515 1513 1513 1512 1509 1507 1506 1505 1504 1504 1503 1501
1519 1521 1523 1524 1526 1527 1528 1529 1530 1530 1530 1531 1530 1530 1530 1529 1528 1527 1526 1525 1524 1523 1523 1522 1520 1519 1518 1517 1516 1514 1512 1510 1507 1507 1507 1504 1501 1499 1497 1496 1496 1495 1494
1518 1520 1522 1523 1525 1526 1527 1528 1528 1528 1528 1529 1528 1528 1527 1526 1526 1524 1523 1522 1521 1520 1518 1517 1516 1515 1514 1512 1511 1509 1508 1506 1503 1502 1501 1499 1496 1493 1490 1489 1489 1488 1486